• MPC Preparation (Info)

  • MPEC 2010-G30 : 2010 GU6

    The following Minor Planet Electronic Circular may be linked-to from your own Web pages, but must not otherwise be redistributed electronically.

    A form allowing access to any MPEC is at the bottom of this page.


    Read MPEC 2010-G29 Read MPEC 2010-G31


    M.P.E.C. 2010-G30                                Issued 2010 Apr. 6, 15:18 UT
    
         The Minor Planet Electronic Circulars contain information on unusual
             minor planets and routine data on comets.  They are published
       on behalf of Commission 20 of the International Astronomical Union by the
              Minor Planet Center, Smithsonian Astrophysical Observatory,
                              Cambridge, MA 02138, U.S.A.
    
                 Prepared using the Tamkin Foundation Computer Network
    
                                  MPC@CFA.HARVARD.EDU
           URL https://www.minorplanetcenter.org/iau/mpc.html  ISSN 1523-6714
    
                                       2010 GU6
    
    Observations:
         K10G06U* C2010 04 05.42178 14 56 31.02 -11 49 37.3          19.4 V EG030703
         K10G06U  C2010 04 05.42875 14 56 32.24 -11 49 24.3          19.1 V EG030703
         K10G06U  C2010 04 05.43573 14 56 33.64 -11 49 12.0          19.9 V EG030703
         K10G06U  C2010 04 05.44280 14 56 35.16 -11 49 01.8          19.6 V EG030703
         K10G06U  C2010 04 05.47795 14 56 42.15 -11 48 03.6          18.9 V EG030703
         K10G06U  C2010 04 05.47876 14 56 42.24 -11 48 02.0          19.0 V EG030703
         K10G06U  C2010 04 05.47957 14 56 42.42 -11 48 01.2          19.3 V EG030703
         K10G06U  C2010 04 05.48038 14 56 42.61 -11 47 58.9          19.1 V EG030703
         K10G06U  C2010 04 06.10069 14 58 53.91 -11 30 46.7          19.2 R EG030473
         K10G06U  C2010 04 06.10486 14 58 54.77 -11 30 39.6          19.2 R EG030473
         K10G06U KC2010 04 06.10829 14 58 55.56 -11 30 34.0                 EG030204
         K10G06U KC2010 04 06.11855 14 58 57.70 -11 30 16.4          19.0 C EG030204
         K10G06U  C2010 04 06.30442514 59 38.50 -11 24 52.9          19.1 V EG030H21
         K10G06U  C2010 04 06.30611914 59 38.87 -11 24 50.3          19.0 V EG030H21
         K10G06U  C2010 04 06.30803614 59 39.25 -11 24 46.2          18.8 V EG030H21
         K10G06U  C2010 04 06.31136314 59 39.93 -11 24 40.6          19.1 V EG030H21
         K10G06U  C2010 04 06.31584514 59 40.88 -11 24 33.0          19.4 V EG030H21
         K10G06U  C2010 04 06.31903314 59 41.54 -11 24 27.1          18.8 V EG030H21
         K10G06U  C2010 04 06.38476 14 59 55.82 -11 22 29.4                 EG030291
         K10G06U  C2010 04 06.39021 14 59 56.95 -11 22 19.8                 EG030291
         K10G06U  C2010 04 06.39565 14 59 58.05 -11 22 10.8          19.1 V EG030G96
         K10G06U  C2010 04 06.39566 14 59 58.07 -11 22 10.5          19.3 V EG030291
         K10G06U  C2010 04 06.39626 14 59 58.20 -11 22 09.8          19.1 V EG030G96
         K10G06U  C2010 04 06.39689 14 59 58.30 -11 22 08.6          19.0 V EG030G96
         K10G06U  C2010 04 06.39750 14 59 58.45 -11 22 07.5          19.1 V EG030G96
         K10G06U  C2010 04 06.42583 15 00 04.36 -11 21 17.2          19.1 R EG030926
         K10G06U  C2010 04 06.42785 15 00 04.77 -11 21 13.7          19.1 R EG030926
         K10G06U  C2010 04 06.42985 15 00 05.19 -11 21 10.3          19.2 R EG030926
    
    Observer details:
    204 Schiaparelli Observatory.  Observer L. Buzzi.  0.60-m f/4.64 reflector
        + CCD.
    291 LPL/Spacewatch II.  Observer R. S. McMillan.  1.8-m f/2.7 reflector + CCD.
    473 Remanzacco.  Observers L. Donato, V. Gonano, E. Guido, G. Sostero.  0.45-m
        f/4.4 Newtonian reflector + CCD.
    703 Catalina Sky Survey.  Observer A. Boattini.  Measurers J. D. Ahern,
        E. C. Beshore, A. Boattini, G. J. Garradd, A. R. Gibbs, A. D. Grauer,
        R. E. Hill, R. A. Kowalski, S. M. Larson, R. H. McNaught.  0.68-m Schmidt
        + CCD.
    926 Tenagra II Observatory.  Observers P. R. Holvorcem, M. Schwartz.  Measurer
        P. R. Holvorcem.  0.81-m f/7 Ritchey-Chretien + CCD.
    G96 Mt. Lemmon Survey.  Observer A. R. Gibbs.  Measurers J. D. Ahern,
        E. C. Beshore, A. Boattini, G. J. Garradd, A. R. Gibbs, A. D. Grauer,
        R. E. Hill, R. A. Kowalski, S. M. Larson, R. H. McNaught.  1.5-m reflector
        + CCD.
    H21 Astronomical Research Observatory, Westfield.  Observer R. Holmes.
        Measurer S. Foglia.  0.81-m f/4.0 astrograph + CCD.
    
    Orbital elements:
    2010 GU6                                                 Earth MOID = 0.1056 AU
    Epoch 2010 July 23.0 TT = JDT 2455400.5                 MPC
    M   7.59280              (2000.0)            P               Q
    n   0.17196496     Peri.   83.25848     +0.16105443     +0.98551262
    a   3.2026494      Node   196.30263     -0.96372427     +0.14542064
    e   0.7276930      Incl.   10.91709     -0.21283091     +0.08727951
    P   5.73           H   20.1           G   0.15           U   9
    Residuals in seconds of arc
    100405 703  0.9+  1.6-    100406 204  0.2-  0.3-    100406 G96  0.2-  0.1-
    100405 703  1.4-  0.1+    100406 204  0.1+  0.4-    100406 291  0.2-  0.0
    100405 703  1.1-  1.0+    100406 H21  0.1+  0.3-    100406 G96  0.2+  0.2-
    100405 703  0.7+  0.4-    100406 H21  0.4+  0.6-    100406 G96  0.3-  0.1-
    100405 703  0.8+  0.2+    100406 H21  0.1+  0.2+    100406 G96  0.1+  0.1-
    100405 703  0.3-  0.4+    100406 H21  0.1-  0.0     100406 926  0.3+  0.1-
    100405 703  0.0   0.1-    100406 H21  0.2+  0.2-    100406 926  0.2+  0.1-
    100405 703  0.4+  0.9+    100406 H21  0.2+  0.1+    100406 926  0.2+  0.3-
    100406 473  0.1+  0.0     100406 291  0.0   0.2+
    100406 473  0.0   0.1-    100406 291  0.1-  0.3+
    
    Ephemeris:
    2010 GU6                 a,e,i = 3.20, 0.73, 11                  q = 0.8721
    Date    TT    R. A. (2000) Decl.     Delta      r     Elong.  Phase     V
    2010 04 04    14 51.78   -12 25.6    0.343    1.307   149.5    22.8    19.4
    2010 04 14    15 34.67   -06 11.9    0.235    1.209   148.5    25.7    18.5
    2010 04 24    16 59.13   +07 56.7    0.156    1.116   132.2    41.9    17.9
    2010 05 04    19 39.58   +28 28.2    0.139    1.032    95.9    76.4    18.6
    2010 05 14    22 13.11   +34 40.1    0.191    0.960    69.4    99.9    20.0
    2010 05 24    23 35.18   +33 06.1    0.273    0.907    59.8   105.1    21.0
    2010 06 03    00 23.06   +31 00.7    0.364    0.877    57.9   101.5    21.3
    2010 06 13    00 58.04   +29 23.2    0.456    0.875    59.2    94.2    21.5
    2010 06 23    01 27.19   +28 10.5    0.542    0.900    62.0    85.8    21.6
    2010 07 03    01 52.63   +27 12.9    0.619    0.950    65.8    77.7    21.7
    2010 07 13    02 14.66   +26 21.1    0.683    1.019    70.5    70.2    21.8
    2010 07 23    02 32.93   +25 27.0    0.732    1.101    76.2    63.6    21.9
    2010 08 02    02 47.12   +24 25.1    0.767    1.193    82.8    57.6    22.0
    2010 08 12    02 56.77   +23 10.8    0.789    1.290    90.6    51.7    22.0
    2010 08 22    03 01.45   +21 40.0    0.802    1.391    99.5    45.8    22.1
    2010 09 01    03 00.93   +19 49.6    0.809    1.493   109.8    39.5    22.1
    
    Timothy B. Spahr             (C) Copyright 2010 MPC           M.P.E.C. 2010-G30
    

    Read MPEC 2010-G29 Read MPEC 2010-G31


    MPEC number:

    Enter an MPEC number in one of the following forms:

    • 1997-B01 (the full form)
    • J97B01 (the packed version of the full form)
    • B01 (the abbreviated form)